Location: Zagreb
(45.8000°N, 16.0000°E)
Time: 14:12:52
(UTC+02:00)

Tiangong - Visible Passes

Search period start: 15 May 2025 00:00
Search period end: 25 May 2025 00:00
Orbit: 378 x 386 km, 41.5° (Epoch: 14 May)

Date Brightness Start Highest point End Pass type
(mag) Time Alt. Az. Time Alt. Az. Time Alt. Az.
15 May -0.6 04:26:49 12° SSW 04:28:59 23° SSE 04:31:36 10° ESE visible
16 May -0.1 03:28:57 17° SSE 03:28:57 17° SSE 03:30:51 10° ESE visible
17 May -1.0 04:03:09 20° SSW 04:04:34 29° SSE 04:07:23 10° ESE visible
18 May -0.2 03:05:10 19° SE 03:05:10 19° SE 03:06:41 10° ESE visible
18 May -1.4 04:37:30 10° WSW 04:40:28 37° S 04:43:26 10° ESE visible
19 May -1.4 03:39:17 31° SSW 03:39:55 34° S 03:42:50 10° ESE visible
20 May 0.2 02:41:15 16° ESE 02:41:15 16° ESE 02:42:07 10° ESE visible
20 May -1.4 04:13:23 14° WSW 04:15:44 36° S 04:18:40 10° ESE visible
21 May -1.4 03:15:24 35° SSE 03:15:24 35° SSE 03:18:00 10° ESE visible
22 May -1.3 03:49:37 24° SW 03:50:44 31° S 03:53:35 10° SE visible
23 May -0.1 02:51:50 18° SE 02:51:50 18° SE 02:52:52 10° ESE visible
23 May -0.6 04:23:59 10° WSW 04:26:16 19° SSW 04:28:35 10° SSE visible
24 May -0.6 03:26:30 21° SSE 03:26:30 21° SSE 03:28:09 10° SE visible
